Regional Weather Roundup
Issued by NWS

Home | Current Version | Previous Version | Text Only | Print | Product List | Glossary Off
Versions: 1 2 3 4 5 6 7 8 9 10 11 12 13 14 15 16 17 18 19 20 21 22 23 24 25 26 27 28 29 30 31 32 33 34 35 36 37 38 39 40 41 42 43 44 45 46 47 48 49 50

000
ASUS44 KMEG 010400
RWRTN
TENNESSEE HOURLY STATE WEATHER ROUNDUP
NATIONAL WEATHER SERVICE MEMPHIS TN
1100 PM CDT TUE SEP 30 2014

TNZ002-004-019-021-049-052-054-088>092-010500-
WEST TENNESSEE

CITY           SKY/WX    TMP DP  RH WIND       PRES   REMARKS
MEMPHIS INTL   MOCLDY    76  61  59 SE3       29.89S
NWS MEMPHIS      N/A     68 N/A N/A MISG        N/A
JACKSON        CLEAR     64  62  93 CALM      29.91S FOG
DYERSBURG      PTCLDY    64  54  68 CALM      29.91S
PARIS          CLEAR     59  54  82 CALM      29.92S
SAVANNAH       CLEAR     63  63 100 CALM      29.92S
$$

TNZ008-025-027-028-033-062-065-066-010500-
NORTH MIDDLE TENNESSEE

CITY           SKY/WX    TMP DP  RH WIND       PRES   REMARKS
NASHVILLE      MOCLDY    65  56  72 CALM      29.93S
CLARKSVILLE    PTCLDY    64  57  78 CALM      29.92R
COOKEVILLE     CLEAR     54  54 100 CALM      29.95S
CROSSVILLE     CLEAR     59  54  83 CALM      29.99F
$$

TNZ061-075-076-078-094-096-097-010500-
SOUTH MIDDLE TENNESSEE

CITY           SKY/WX    TMP DP  RH WIND       PRES   REMARKS
SHELBYVILLE    CLEAR     61  55  82 E3        29.94F
$$

TNZ017-018-042-046-047-010500-
NORTHEAST TENNESSEE

CITY           SKY/WX    TMP DP  RH WIND       PRES   REMARKS
TRI CITIES     CLEAR     57  54  89 CALM      29.98R
ELIZABETHTON   CLEAR     55  54  94 CALM      29.99S
$$

TNZ012-013-036-069-073-074-010500-
CENTRAL EAST TENNESSEE

CITY           SKY/WX    TMP DP  RH WIND       PRES   REMARKS
KNOXVILLE      CLEAR     63  58  83 NE3       29.94S
OAK RIDGE      CLEAR     62  59  90 CALM      29.97S
MORRISTOWN     CLEAR     61  57  88 CALM      29.98R
$$

TNZ083-085-099-010500-
SOUTHEAST TENNESSEE

CITY           SKY/WX    TMP DP  RH WIND       PRES   REMARKS
CHATTANOOGA    MOCLDY    67  62  84 CALM      29.95R
$$

SKY/WX REPORTED AS FAIR MEANS FEW OR NO CLOUDS BELOW
12 THOUSAND FEET.




USA.gov is the U.S. government's official web portal to all federal, state and local government web resources and services.